Weather Roundup
Issued by NWS

Home | Current Version | Previous Version | Graphics & Text | Print | Product List | Glossary Off
Versions: 1 2 3 4 5 6 7 8 9 10 11 12 13 14 15 16 17 18 19 20 21 22 23 24 25 26 27 28 29 30 31 32 33 34 35 36 37 38 39 40 41 42 43 44 45 46 47 48 49 50

902
NZUS93 KARX 281559
HRRWXR

CURRENT HOURLY OBSERVATIONS ACROSS
MUCH OF THE UPPER MISSISSIPPI VALLEY
NATIONAL WEATHER SERVICE LA CROSSE WI
1100 AM CDT THU APR 28 2016


...SOUTHEAST MINNESOTA...


CITY           SKY/WX    TMP DP  RH WIND       PRES   REMARKS
ROCHESTER      CLOUDY    40  35  83 E14       29.91R WCI  32
ROCHESTER/MAYO CLOUDY    40  33  76 NE9       29.92R WCI  34
WINONA         CLOUDY    41  32  70 E6        29.94R
AUSTIN         CLOUDY    41  36  81 E13       29.88R
ALBERT LEA     NOT AVBL
DODGE CENTER   CLOUDY    39  36  87 E15       29.90S WCI  31
PRESTON        CLOUDY    40  33  76 NE8       29.89R WCI  35
OWATONNA       CLOUDY    39  34  81 NE17      29.92R WCI  30
FARIBAULT      NOT AVBL
$$

...ELSEWHERE IN MINNESOTA...


CITY           SKY/WX    TMP DP  RH WIND       PRES   REMARKS
MINNEAPOLIS    LGT RAIN  38  33  82 NE13      29.97S WCI  30
INTNL FALLS    PTSUNNY   45  20  36 NE9       30.15S
DULUTH         PTSUNNY   43  24  47 E20       30.07R
RED WING       CLOUDY    39  34  81 E12G17    29.95R WCI  32
REDWOOD FALLS  CLOUDY    38  33  82 NE10G17   29.97R WCI  31
MANKATO        CLOUDY    39  34  81 NE13      29.93R WCI  32
WORTHINGTON    CLOUDY    38  36  92 NE14      29.92R WCI  30
FAIRMONT       CLOUDY    39  28  65 NE10      29.90R WCI  32
$$

...SOUTHWEST WISCONSIN...


CITY           SKY/WX    TMP DP  RH WIND       PRES   REMARKS
LA CROSSE      CLOUDY    45  32  60 NE10      29.93R
PRAIRIE DU CHI CLOUDY    44  38  78 E8        29.87R HAZE
BOSCOBEL       CLOUDY    47  38  71 E8        29.89R
LONE ROCK      NOT AVBL
PLATTEVILLE    CLOUDY    44  42  91 E15       29.87R
FORT MC COY    CLOUDY    42  34  72 E14       29.94S
MAUSTON-NEW LI NOT AVBL
VIROQUA        CLOUDY    43  35  73 E17       29.89R
WIS DELLS      LGT RAIN  40  36  87 E12       29.93R WCI  32
$$

...ELSEWHERE IN WISCONSIN...


CITY           SKY/WX    TMP DP  RH WIND       PRES   REMARKS
MILWAUKEE      CLOUDY    41  34  76 E20       29.95R
MADISON        LGT RAIN  41  37  86 E14       29.92S
GREEN BAY      LGT RAIN  43  31  62 SE10      30.03R
EAU CLAIRE     NOT AVBL
BLACK RVR FLS  CLOUDY    40  33  77 NE10      29.96R WCI  34
MEDFORD        CLOUDY    43  22  43 E10       29.98R
WAUSAU         CLOUDY    47  22  37 E10       29.98R
WIS RAPIDS     LGT RAIN  38  35  89 E8        30.01R WCI  32
MARSHFIELD     RAIN      38  33  82 E9        29.99R WCI  31
RICE LAKE      PTSUNNY   46  21  38 E9        30.02S
$$

...NORTHEAST IOWA...


CITY           SKY/WX    TMP DP  RH WIND       PRES   REMARKS
WATERLOO       CLOUDY    47  44  90 E13       29.84R
DUBUQUE        CLOUDY    46  44  93 E14G22    29.85R
DECORAH        CLOUDY    43  39  87 E14       29.86R
MASON CITY     CLOUDY    42  40  92 E12       29.87R
CHARLES CITY   CLOUDY    45  43  93 E17       29.85R
OELWEIN        CLOUDY    46  46 100 E15G21    29.83S
$$

...ELSEWHERE IN IOWA...


CITY           SKY/WX    TMP DP  RH WIND       PRES   REMARKS
DES MOINES     CLOUDY    53  44  71 W7        29.83R
IOWA CITY      CLOUDY    54  52  93 SE7       29.83R FOG
FORT DODGE     CLOUDY    46  41  81 E7        29.85R
MARSHALLTOWN   CLOUDY    49  47  93 E13       29.82R
CEDAR RAPIDS   LGT RAIN  49  49 100 E10       29.81R FOG
$$

...NORTHERN ILLINOIS...


CITY           SKY/WX    TMP DP  RH WIND       PRES   REMARKS
CHICAGO-OHARE  CLOUDY    44  39  82 NE12G22   29.89R
CHICAGO-MIDWAY CLOUDY    48  43  82 NE7       29.88R FOG
MOLINE         CLOUDY    51  47  86 E12       29.85R FOG
ROCKFORD       CLOUDY    45  39  79 E12       29.91R
PEORIA         PTSUNNY   58  52  80 CALM      29.84R
$$

NOTE: "FAIR" INDICATES FEW OR NO CLOUDS BELOW 12,000 FEET WITH NO
SIGNIFICANT WEATHER AND/OR OBSTRUCTIONS TO VISIBILITY. WIND
SPEEDS ARE IN MILES-PER-HOUR.




USA.gov is the U.S. government's official web portal to all federal, state and local government web resources and services.